FW5442 Weather Reports


time (UTC)temp
C
wind
direction
speed
KPH
gust
KPH
rain 1hr
cm
rain 24hr
cm
rain mn
cm
humidity
%
barometer
mb
20260905002057 30 134 4.8 6.4 0.00 0.00 0.00 62 1012.6
20260905001611 31 173 3.2 6.4 0.00 0.00 0.00 61 1012.5
20260905001056 31 150 3.2 9.7 0.00 0.00 0.00 61 1012.5
20260905000557 31 161 6.4 9.7 0.00 0.00 0.00 60 1012.3
20260905000108 31 160 6.4 9.7 0.00 0.00 0.00 57 1012.3
20260904235556 31 213 6.4 11.3 0.00 0.00 0.00 57 1012.3
20260904235054 31 221 8.0 11.3 0.00 0.00 0.00 57 1012.3
20260904234607 31 230 9.7 12.9 0.00 0.00 0.00 57 1012.3
20260904234053 31 228 8.0 14.5 0.00 0.00 0.00 57 1012.2
20260904233554 31 230 11.3 19.3 0.00 0.00 0.00 58 1012.2
20260904233058 31 235 12.9 20.9 0.00 0.00 0.00 58 1012.2
20260904232554 30 243 16.1 22.5 0.00 0.00 0.00 58 1012.2
20260904232053 30 261 16.1 22.5 0.00 0.00 0.00 58 1012.2
20260904231557 30 240 19.3 22.5 0.00 0.00 0.00 58 1012.2
20260904231055 31 252 19.3 24.1 0.00 0.00 0.00 58 1012.0
20260904230554 31 226 17.7 30.6 0.00 0.00 0.00 57 1012.0
20260904230113 31 217 24.1 30.6 0.00 0.00 0.00 56 1012.1
20260904225553 32 218 22.5 30.6 0.00 0.00 0.00 54 1012.0
20260904225053 33 202 19.3 30.6 0.00 0.00 0.00 52 1012.0
20260904224602 33 160 20.9 29.0 0.00 0.00 0.00 49 1011.7
20260904224056 34 169 19.3 29.0 0.00 0.00 0.00 47 1011.7
20260904223555 35 124 16.1 29.0 0.00 0.00 0.00 44 1011.6
20260904223105 35 100 9.7 12.9 0.00 0.00 0.00 42 1011.4
20260904222553 36 110 3.2 8.0 0.00 0.00 0.00 41 1011.3
20260904222054 36 90 3.2 8.0 0.00 0.00 0.00 38 1011.4
20260904221608 36 85 0.0 4.8 0.00 0.00 0.00 37 1011.4
20260904221056 37 96 0.0 8.0 0.00 0.00 0.00 37 1011.4
20260904220554 37 85 1.6 11.3 0.00 0.00 0.00 37 1011.2
20260904220121 37 93 3.2 11.3 0.00 0.00 0.00 38 1011.2
20260904215554 37 80 6.4 9.7 0.00 0.00 0.00 38 1011.3
20260904215053 37 117 6.4 9.7 0.00 0.00 0.00 38 1011.3
20260904214603 37 109 6.4 12.9 0.00 0.00 0.00 39 1011.2
20260904214053 37 124 4.8 12.9 0.00 0.00 0.00 39 1011.2
20260904213553 37 115 6.4 12.9 0.00 0.00 0.00 37 1011.5
20260904213108 37 187 1.6 9.7 0.00 0.00 0.00 36 1011.5
20260904212553 37 37 6.4 9.7 0.00 0.00 0.00 37 1011.4
20260904212054 37 328 0.0 8.0 0.00 0.00 0.00 38 1011.4
20260904211607 37 0 1.6 9.7 0.00 0.00 0.00 39 1011.6
20260904211053 36 319 6.4 16.1 0.00 0.00 0.00 40 1011.7
20260904210556 36 326 4.8 16.1 0.00 0.00 0.00 41 1011.7
20260904205553 36 337 11.3 19.3 0.00 0.00 0.00 42 1011.5
20260904205053 36 323 9.7 22.5 0.00 0.00 0.00 41 1011.6
20260904204606 36 352 6.4 22.5 0.00 0.00 0.00 40 1011.7
20260904204055 37 309 8.0 22.5 0.00 0.00 0.00 40 1011.8
20260904203554 36 6 4.8 16.1 0.00 0.00 0.00 42 1011.9
20260904203057 37 342 6.4 19.3 0.00 0.00 0.00 41 1011.9
20260904202555 36 269 9.7 22.5 0.00 0.00 0.00 42 1012.1
20260904202055 36 176 11.3 22.5 0.00 0.00 0.00 42 1012.2
20260904201606 36 275 11.3 22.5 0.00 0.00 0.00 43 1012.3
20260904201052 36 250 8.0 20.9 0.00 0.00 0.00 42 1012.4
20260904200553 36 156 9.7 16.1 0.00 0.00 0.00 43 1012.6
20260904200110 36 265 1.6 20.9 0.00 0.00 0.00 43 1012.7
20260904195557 35 294 4.8 24.1 0.00 0.00 0.00 44 1012.7
20260904195057 35 292 16.1 24.1 0.00 0.00 0.00 44 1012.9
20260904194606 36 210 14.5 22.5 0.00 0.00 0.00 44 1013.0
20260904194056 36 243 17.7 22.5 0.00 0.00 0.00 44 1013.1
20260904193557 36 231 6.4 14.5 0.00 0.00 0.00 43 1013.0
20260904193104 36 1 3.2 9.7 0.00 0.00 0.00 44 1013.1
20260904192555 36 335 6.4 8.0 0.00 0.00 0.00 44 1013.1
20260904192056 35 356 3.2 8.0 0.00 0.00 0.00 46 1013.2
20260904191601 35 315 3.2 8.0 0.00 0.00 0.00 46 1013.1
20260904191054 35 0 0.0 8.0 0.00 0.00 0.00 45 1013.1
20260904190553 35 337 1.6 4.8 0.00 0.00 0.00 44 1013.3
20260904190106 35 32 0.0 8.0 0.00 0.00 0.00 44 1013.3
20260904185553 35 343 3.2 9.7 0.00 0.00 0.00 45 1013.5
20260904185059 35 4 3.2 12.9 0.00 0.00 0.00 44 1013.5
20260904184611 35 10 6.4 12.9 0.00 0.00 0.00 44 1013.7
20260904184053 35 342 6.4 14.5 0.00 0.00 0.00 43 1013.7
20260904183554 36 309 6.4 14.5 0.00 0.00 0.00 43 1013.8
20260904183058 36 11 4.8 16.1 0.00 0.00 0.00 42 1013.9
20260904182553 36 281 9.7 16.1 0.00 0.00 0.00 44 1013.9
20260904182054 36 349 6.4 9.7 0.00 0.00 0.00 43 1014.1
20260904181601 37 330 3.2 6.4 0.00 0.00 0.00 43 1014.1
20260904181055 37 249 0.0 9.7 0.00 0.00 0.00 40 1014.3
20260904180555 36 52 1.6 11.3 0.00 0.00 0.00 42 1014.2
20260904180114 36 188 6.4 16.1 0.00 0.00 0.00 42 1014.2
20260904175554 36 150 4.8 16.1 0.00 0.00 0.00 44 1014.3
20260904175056 36 156 9.7 16.1 0.00 0.00 0.00 44 1014.4
20260904174621 36 181 9.7 12.9 0.00 0.00 0.00 45 1014.5
20260904174055 36 162 1.6 12.9 0.00 0.00 0.00 45 1014.6
20260904173554 35 134 8.0 16.1 0.00 0.00 0.00 47 1014.7
20260904173056 35 113 8.0 16.1 0.00 0.00 0.00 46 1014.8
20260904172553 36 115 8.0 12.9 0.00 0.00 0.00 45 1015.0
20260904172053 36 106 4.8 9.7 0.00 0.00 0.00 46 1014.8
20260904171604 36 0 3.2 11.3 0.00 0.00 0.00 46 1015.1
20260904171056 35 169 4.8 11.3 0.00 0.00 0.00 45 1015.2
20260904170553 36 94 1.6 9.7 0.00 0.00 0.00 46 1015.3
20260904170100 35 133 3.2 9.7 0.00 0.00 0.00 46 1015.3
20260904165557 35 43 4.8 9.7 0.00 0.00 0.00 47 1015.3
20260904165057 35 96 1.6 11.3 0.00 0.00 0.00 49 1015.4
20260904164606 34 312 1.6 11.3 0.00 0.00 0.00 49 1015.5
20260904164053 34 301 4.8 11.3 0.00 0.00 0.00 49 1015.4
20260904163553 34 59 4.8 11.3 0.00 0.00 0.00 49 1015.4
20260904163106 34 120 3.2 8.0 0.00 0.00 0.00 49 1015.5
20260904162556 34 139 3.2 8.0 0.00 0.00 0.00 51 1015.5
20260904162056 34 136 4.8 6.4 0.00 0.00 0.00 51 1015.5
20260904161609 34 126 0.0 6.4 0.00 0.00 0.00 52 1015.5
20260904161055 33 0 0.0 6.4 0.00 0.00 0.00 53 1015.6
20260904160557 33 108 3.2 6.4 0.00 0.00 0.00 53 1015.5
20260904160110 33 88 1.6 6.4 0.00 0.00 0.00 53 1015.5
20260904155556 33 295 1.6 8.0 0.00 0.00 0.00 54 1015.4
20260904155056 33 0 1.6 8.0 0.00 0.00 0.00 54 1015.4
20260904154559 33 359 0.0 4.8 0.00 0.00 0.00 55 1015.6
20260904154053 32 0 1.6 8.0 0.00 0.00 0.00 56 1015.4
20260904153557 32 356 1.6 8.0 0.00 0.00 0.00 57 1015.4
20260904153129 32 302 0.0 4.8 0.00 0.00 0.00 57 1015.4
20260904152554 31 8 0.0 4.8 0.00 0.00 0.00 60 1015.5
20260904152057 30 15 1.6 6.4 0.00 0.00 0.00 60 1015.4
20260904151606 30 340 3.2 6.4 0.00 0.00 0.00 62 1015.5
20260904151056 30 297 3.2 6.4 0.00 0.00 0.00 63 1015.2
20260904150553 30 287 3.2 6.4 0.00 0.00 0.00 63 1015.2
20260904150100 30 334 3.2 6.4 0.00 0.00 0.00 63 1015.4
20260904145556 30 302 1.6 6.4 0.00 0.00 0.00 66 1015.3
20260904145052 29 276 4.8 6.4 0.00 0.00 0.00 65 1015.1
20260904144603 29 291 3.2 6.4 0.00 0.00 0.00 66 1015.1
20260904144055 29 13 3.2 6.4 0.00 0.00 0.00 68 1014.9
20260904143553 28 320 3.2 4.8 0.00 0.00 0.00 70 1015.0
20260904143103 28 284 0.0 3.2 0.00 0.00 0.00 71 1015.0
20260904142638 28 0 0.0 6.4 0.00 0.00 0.00 72 1015.1
20260904142053 28 294 0.0 6.4 0.00 0.00 0.00 72 1015.0
20260904141558 28 0 0.0 0.0 0.00 0.00 0.00 75 1015.0
20260904141054 27 0 0.0 0.0 0.00 0.00 0.00 76 1015.1
20260904140554 27 0 0.0 0.0 0.00 0.00 0.00 78 1015.2
20260904140105 27 0 0.0 0.0 0.00 0.00 0.00 78 1015.2
20260904135555 27 0 0.0 0.0 0.00 0.00 0.00 79 1015.1
20260904135052 26 0 0.0 0.0 0.00 0.00 0.00 80 1015.1
20260904134609 26 0 0.0 1.6 0.00 0.00 0.00 81 1015.0
20260904134057 26 0 0.0 1.6 0.00 0.00 0.00 81 1015.1
20260904133554 26 0 0.0 1.6 0.00 0.00 0.00 81 1015.1
20260904133108 26 0 0.0 0.0 0.00 0.00 0.00 81 1014.9
20260904132553 26 0 0.0 0.0 0.00 0.00 0.00 83 1014.9
20260904132057 25 0 0.0 0.0 0.00 0.00 0.00 83 1014.9
20260904131601 25 0 0.0 0.0 0.00 0.00 0.00 84 1014.9
20260904131056 25 0 0.0 3.2 0.00 0.00 0.00 84 1015.1
20260904130553 25 0 0.0 3.2 0.00 0.00 0.00 85 1015.0
20260904130114 24 0 0.0 4.8 0.00 0.00 0.00 86 1015.0
20260904125553 24 352 3.2 4.8 0.00 0.00 0.00 86 1015.0
20260904125056 24 359 4.8 4.8 0.00 0.00 0.00 86 1015.0
20260904124606 24 352 3.2 4.8 0.00 0.00 0.00 86 1014.7
20260904124052 24 349 1.6 3.2 0.00 0.00 0.00 86 1014.9
20260904123555 24 357 1.6 3.2 0.00 0.00 0.00 87 1014.9
20260904123102 23 360 1.6 3.2 0.00 0.00 0.00 87 1014.8
20260904122553 23 354 3.2 3.2 0.00 0.00 0.00 88 1014.8
20260904122056 23 354 1.6 3.2 0.00 0.00 0.00 88 1014.8
20260904121601 23 355 1.6 1.6 0.00 0.00 0.00 88 1014.5
20260904121056 23 0 0.0 0.0 0.00 0.00 0.00 88 1014.6
20260904120556 23 0 0.0 0.0 0.00 0.00 0.00 88 1014.7
20260904120108 23 0 0.0 0.0 0.00 0.00 0.00 88 1014.6
20260904115553 23 0 0.0 0.0 0.00 0.00 0.00 88 1014.7
20260904115056 23 0 0.0 0.0 0.00 0.00 0.00 88 1014.6
20260904114611 23 0 0.0 0.0 0.00 0.00 0.00 87 1014.6
20260904114056 23 0 0.0 0.0 0.00 0.00 0.00 86 1014.5
20260904113556 23 0 0.0 0.0 0.00 0.00 0.00 87 1014.3
20260904113106 23 0 0.0 0.0 0.00 0.00 0.00 87 1014.5
20260904112556 23 0 0.0 0.0 0.00 0.00 0.00 87 1014.5
20260904112057 23 0 0.0 0.0 0.00 0.00 0.00 87 1014.6
20260904111558 23 0 0.0 0.0 0.00 0.00 0.00 87 1014.5
20260904111057 23 0 0.0 0.0 0.00 0.00 0.00 87 1014.5
20260904110557 23 0 0.0 0.0 0.00 0.00 0.00 88 1014.4
20260904110057 23 0 0.0 0.0 0.00 0.00 0.00 87 1014.5
20260904105553 23 0 0.0 0.0 0.00 0.00 0.00 87 1014.4
20260904105053 23 0 0.0 0.0 0.00 0.00 0.00 87 1014.3
20260904104559 23 0 0.0 0.0 0.00 0.00 0.00 87 1014.3
20260904104052 23 0 0.0 0.0 0.00 0.00 0.00 87 1014.3
20260904103554 23 0 0.0 0.0 0.00 0.00 0.00 87 1014.3
20260904103104 23 0 0.0 0.0 0.00 0.00 0.00 86 1014.3
20260904102556 24 0 0.0 0.0 0.00 0.00 0.00 86 1014.3
20260904102056 24 0 0.0 0.0 0.00 0.00 0.00 86 1014.2
20260904101557 24 0 0.0 0.0 0.00 0.00 0.00 86 1014.1
20260904101053 24 0 0.0 0.0 0.00 0.00 0.00 86 1014.1
20260904100555 24 0 0.0 0.0 0.00 0.00 0.00 86 1014.1
20260904100059 24 0 0.0 0.0 0.00 0.00 0.00 86 1014.2
20260904095554 24 0 0.0 0.0 0.00 0.00 0.00 85 1014.1
20260904095055 23 0 0.0 0.0 0.00 0.00 0.00 86 1014.1
20260904094610 23 0 0.0 3.2 0.00 0.00 0.00 86 1014.1
20260904094053 23 0 0.0 3.2 0.00 0.00 0.00 85 1014.1
20260904093559 24 0 1.6 3.2 0.00 0.00 0.00 85 1014.1
20260904093114 24 167 1.6 4.8 0.00 0.00 0.00 85 1014.1
20260904092556 24 176 1.6 6.4 0.00 0.00 0.00 85 1014.0
20260904092056 24 172 4.8 6.4 0.00 0.00 0.00 85 1013.9
20260904091557 24 221 6.4 6.4 0.00 0.00 0.00 85 1013.9
20260904091052 24 238 4.8 6.4 0.00 0.00 0.00 85 1013.8
20260904090555 24 241 4.8 6.4 0.00 0.00 0.00 85 1013.7
20260904085555 24 244 0.0 4.8 0.00 0.00 0.00 84 1013.7
20260904085052 24 0 0.0 1.6 0.00 0.00 0.00 84 1013.6
20260904084601 24 0 0.0 1.6 0.00 0.00 0.00 84 1013.7
20260904084052 24 0 0.0 1.6 0.00 0.00 0.00 83 1013.6
20260904083557 24 0 0.0 1.6 0.00 0.00 0.00 83 1013.7
20260904083059 24 0 1.6 3.2 0.00 0.00 0.00 83 1013.6
20260904082556 24 217 1.6 3.2 0.00 0.00 0.00 84 1013.5
20260904082055 24 214 3.2 4.8 0.00 0.00 0.00 85 1013.4
20260904081602 24 195 1.6 4.8 0.00 0.00 0.00 84 1013.3
20260904081054 24 179 4.8 4.8 0.00 0.00 0.00 84 1013.3
20260904080552 23 0 0.0 0.0 0.00 0.00 0.00 84 1013.3
20260904080101 23 0 0.0 0.0 0.00 0.00 0.00 85 1013.1
20260904075555 23 0 0.0 0.0 0.00 0.00 0.00 84 1013.2
20260904075055 24 0 0.0 0.0 0.00 0.00 0.00 83 1013.1
20260904074605 24 0 0.0 1.6 0.00 0.00 0.00 83 1013.2
20260904074058 24 0 0.0 3.2 0.00 0.00 0.00 83 1013.0
20260904073556 24 108 1.6 3.2 0.00 0.00 0.00 84 1013.0
20260904073107 24 107 1.6 3.2 0.00 0.00 0.00 84 1013.1
20260904072555 24 100 1.6 3.2 0.00 0.00 0.00 83 1013.0
20260904072055 24 93 3.2 3.2 0.00 0.00 0.00 83 1013.2
20260904071600 24 95 3.2 3.2 0.00 0.00 0.00 83 1013.2
20260904071052 25 96 1.6 3.2 0.00 0.00 0.00 82 1013.2
20260904070554 25 0 0.0 0.0 0.00 0.00 0.00 82 1013.2
20260904070104 25 0 0.0 0.0 0.00 0.00 0.00 82 1013.2
20260904065553 25 0 0.0 0.0 0.00 0.00 0.00 81 1013.2
20260904065053 25 0 0.0 0.0 0.00 0.00 0.00 81 1013.2
20260904064558 25 0 0.0 0.0 0.00 0.00 0.00 81 1013.3
20260904064055 25 0 0.0 0.0 0.00 0.00 0.00 81 1013.3
20260904063556 25 0 0.0 0.0 0.00 0.00 0.00 82 1013.4
20260904063117 25 0 0.0 0.0 0.00 0.00 0.00 82 1013.3
20260904062552 25 0 0.0 0.0 0.00 0.00 0.00 82 1013.4
20260904062052 25 0 0.0 0.0 0.00 0.00 0.00 82 1013.4
20260904061605 25 0 0.0 0.0 0.00 0.00 0.00 81 1013.4
20260904061052 25 0 0.0 0.0 0.00 0.00 0.00 80 1013.3
20260904060555 25 0 0.0 0.0 0.00 0.00 0.00 80 1013.2
20260904055555 26 0 0.0 0.0 0.00 0.00 0.00 78 1013.3
20260904055055 26 0 0.0 0.0 0.00 0.00 0.00 76 1013.3
20260904054602 26 0 0.0 0.0 0.00 0.00 0.00 76 1013.3
20260904054054 26 0 0.0 0.0 0.00 0.00 0.00 76 1013.2
20260904053555 26 0 0.0 0.0 0.00 0.00 0.00 77 1013.3
20260904053139 26 0 0.0 0.0 0.00 0.00 0.00 77 1013.2
20260904052556 26 0 0.0 4.8 0.00 0.00 0.00 77 1013.3
20260904052100 26 0 0.0 4.8 0.00 0.00 0.00 77 1013.3
20260904051605 26 75 3.2 4.8 0.00 0.00 0.00 77 1013.4
20260904051055 26 82 0.0 3.2 0.00 0.00 0.00 78 1013.3
20260904050555 26 0 0.0 0.0 0.00 0.00 0.00 79 1013.2
20260904050108 26 0 0.0 0.0 0.00 0.00 0.00 78 1013.1
20260904045557 26 0 0.0 0.0 0.00 0.00 0.00 79 1013.2
20260904045055 26 0 0.0 0.0 0.00 0.00 0.00 79 1013.2
20260904044559 26 0 0.0 0.0 0.00 0.00 0.00 78 1013.1
20260904044053 26 0 0.0 0.0 0.00 0.00 0.00 77 1013.3
20260904043552 26 0 0.0 0.0 0.00 0.00 0.00 77 1013.3
20260904043103 26 0 0.0 0.0 0.00 0.00 0.00 77 1013.4
20260904042554 26 0 0.0 0.0 0.00 0.00 0.00 78 1013.5
20260904042056 26 0 0.0 0.0 0.00 0.00 0.00 78 1013.5
20260904041606 26 0 0.0 0.0 0.00 0.00 0.00 78 1013.5
20260904041058 26 0 0.0 0.0 0.00 0.00 0.00 78 1013.5
20260904040552 26 0 0.0 0.0 0.00 0.00 0.00 77 1013.7
20260904040104 26 0 0.0 0.0 0.00 0.00 0.00 77 1013.5
20260904035553 26 0 0.0 0.0 0.00 0.00 0.00 77 1013.6
20260904035052 26 0 0.0 0.0 0.00 0.00 0.00 77 1013.5
20260904034604 26 0 0.0 0.0 0.00 0.00 0.00 77 1013.6
20260904034055 26 0 0.0 1.6 0.00 0.00 0.00 77 1013.5
20260904033554 26 0 0.0 3.2 0.00 0.00 0.00 77 1013.7
20260904033112 26 0 1.6 3.2 0.00 0.00 0.00 77 1013.7
20260904032554 26 103 1.6 3.2 0.00 0.00 0.00 77 1013.9
20260904032052 26 122 1.6 3.2 0.00 0.00 0.00 78 1013.8
20260904031604 26 143 1.6 4.8 0.00 0.00 0.00 78 1013.7
20260904031056 26 144 3.2 6.4 0.00 0.00 0.00 77 1013.7
20260904030552 26 127 3.2 6.4 0.00 0.00 0.00 76 1013.8
20260904025557 26 92 4.8 6.4 0.00 0.00 0.00 77 1013.8
20260904025056 26 98 4.8 6.4 0.00 0.00 0.00 77 1013.7
20260904024605 26 101 4.8 6.4 0.00 0.00 0.00 78 1013.6
20260904024052 26 117 6.4 6.4 0.00 0.00 0.00 79 1013.6
20260904023552 26 98 4.8 6.4 0.00 0.00 0.00 78 1013.4
20260904023059 26 82 4.8 6.4 0.00 0.00 0.00 77 1013.4
20260904022553 26 97 3.2 4.8 0.00 0.00 0.00 75 1013.4
20260904022054 27 0 0.0 0.0 0.00 0.00 0.00 74 1013.3
20260904021606 27 0 0.0 0.0 0.00 0.00 0.00 73 1013.2
20260904021051 27 0 0.0 0.0 0.00 0.00 0.00 74 1013.1
20260904020556 27 0 0.0 1.6 0.00 0.00 0.00 73 1013.1
20260904020123 27 0 0.0 1.6 0.00 0.00 0.00 74 1013.1
20260904015557 27 0 0.0 0.0 0.00 0.00 0.00 73 1013.1
20260904015056 27 0 0.0 0.0 0.00 0.00 0.00 73 1013.2
20260904014649 27 0 0.0 0.0 0.00 0.00 0.00 73 1013.1
20260904014055 27 0 0.0 0.0 0.00 0.00 0.00 73 1013.1
20260904013554 27 0 0.0 0.0 0.00 0.00 0.00 73 1013.1
20260904013109 27 0 0.0 0.0 0.00 0.00 0.00 72 1013.0
20260904012555 27 0 0.0 0.0 0.00 0.00 0.00 72 1013.0
20260904012052 27 0 0.0 0.0 0.00 0.00 0.00 72 1013.0
20260904011608 27 0 0.0 0.0 0.00 0.00 0.00 72 1013.0
20260904011055 27 0 0.0 0.0 0.00 0.00 0.00 72 1012.9
20260904010552 27 0 0.0 0.0 0.00 0.00 0.00 73 1012.9
20260904010105 27 0 0.0 0.0 0.00 0.00 0.00 72 1012.9
20260904005552 27 0 0.0 0.0 0.00 0.00 0.00 73 1012.9
20260904005055 27 0 0.0 0.0 0.00 0.00 0.00 73 1012.9
20260904004603 27 0 0.0 1.6 0.00 0.00 0.00 73 1013.0
20260904004053 27 0 0.0 3.2 0.00 0.00 0.00 73 1013.0
20260904003553 27 0 1.6 4.8 0.00 0.00 0.00 73 1012.9
20260904003112 27 139 3.2 4.8 0.00 0.00 0.00 73 1012.9
20260904002552 27 161 3.2 4.8 0.00 0.00 0.00 72 1012.8